Location: Svitavy
(49.7500°N, 16.4667°E)
Time: 21:08:59
(UTC+01:00)

ISS - Pass Details

Date: 26 January 2020
Orbit: 415 x 423 km, 51.6° (Epoch: 25 February)

Event Time Altitude Azimuth Distance (km) Brightness Sun altitude
Rises 18:22:23 0° 254° (WSW) 2,375 1.8 -16.7°
Reaches altitude 10° 18:24:29 10° 255° (WSW) 1,511 0.4 -17.0°
Maximum altitude 18:27:53 84° 343° (NNW) 431 -3.8 -17.6°
Enters shadow 18:28:35 54° 66° (ENE) 523 -3.7 -17.7°
